Aérodrome :
LOGIN :

S'inscrire | Disclaimer

   EN    FR    IT 

 










Légende :    VFR   VFR Marginal   IFR   IFR Intensif   IFR Très Intensif
Visi : 
Plafond : 
>= 8 km
>= 3000ft
5 à 8 km
1000 à 3000 ft
1500m à 5 km
500 à 1000 ft
800 à 1500m
200 à 500 ft
< 800m
< 200 ft
Symboles :   Orages  Brouillard  Fortes neiges  Fortes précipitations  Vent > 20 kt
SIGMETs :   Divers  Orages  Givrage  Turbulence  Onde Orograph.  Cendres Volcan.






- Altitude de l'aérodrome : 2731 ft
- Code IATA : LPY


LFHP - Le Puy Loudes

DERNIER METAR :
  • 161030Z AUTO 17018G29KT 140V200 9999 BKN024 BKN240 11/06 Q1008

METARs EXPIRÉS :
  • 161000Z AUTO 16012KT 120V210 9999 OVC022 10/06 Q1009
  • 160930Z AUTO 16013G24KT 130V190 9999 OVC020 10/06 Q1009
  • 160900Z AUTO 16014KT 9999 OVC021 10/06 Q1009
  • 160830Z AUTO 16011KT 130V190 9999 OVC022 10/06 Q1009
  • 160800Z AUTO 16014G26KT 130V190 9999 OVC020 09/06 Q1009

Prévision TAF périmée.



MET'MAP, la Météo Aéronautique d'un coup d'oeil ! - Copyright ORBIFLY Décembre 2007 - Disclaimer

ORBIFLY MET'MAP TEAM :

Programmation & Développement : Alexandra Zaïnal
Sur une idée originale de : Baudouin d'Aumeries
Assistance à la programmation : Marc-Olivier Méhu
Soutien technique & logistique : Manuel Goepfert

Contact : metmap@orbifly.com




SOURCES & CREDITS :

   NOAA